Location: Hungerford
(51.4167°N, 1.5167°W)
Time: 21:39:38
(UTC+00:00)

Cosmos 1833 Rocket - Pass Details

Date: 18 September 2020
Orbit: 831 x 841 km, 71.0° (Epoch: 30 October)

Event Time Altitude Azimuth Distance (km) Brightness Sun altitude
Rises 21:41:50 0° 328° (NNW) 3,408 7.0 -29.6°
Reaches altitude 10° 21:44:18 10° 326° (NW) 2,470 6.0 -29.9°
Enters shadow 21:49:20 63° 281° (W) 942 3.0 -30.4°
